Tracking 28794 objects as of 20-Apr-2024
HD Live streaming from Space Station
objects crossing your sky now

THOR ABLESTAR DEB

Track THOR ABLESTAR DEB now!
10-day predictions


NORAD ID: 5745
Int'l Code: 1961-015JU
Perigee: 728.4 km
Apogee: 856.9 km
Inclination: 67.1 °
Period: 100.6 minutes
Semi major axis: 7163 km
RCS: 0.0107 m2 (small)
Launch date: June 29, 1961
Source: United States (US)
Launch site: AIR FORCE EASTERN TEST RANGE (AFETR)

Note: This is SATELLITE DEBRIS
Your satellite tracking list
Your tracking list is empty




NASA's NSSDC Master Catalog

Two Line Element Set (TLE):
1 05745U 61015JU  24110.90737952  .00061408  00000-0  21744-1 0  9992
2 05745  67.0709  48.5237 0089696 329.0875  30.4963 14.31872986152656
Source of the keplerian elements: AFSPC